Location: Newark
(34.1333°N, 7.9667°W)
Time: 09:45:28
(UTC+00:00)

N. Korean satellite - Pass Details

Date: 01 October 2021
Orbit: 450 x 495 km, 97.3° (Epoch: 15 October)

Event Time Altitude Azimuth Distance (km) Brightness Sun altitude
Rises 05:26:58 0° 17° (NNE) 2,551 10.5 -13.1°
Reaches altitude 10° 05:29:05 10° 23° (NNE) 1,674 9.7 -12.7°
Maximum altitude 05:32:35 50° 99° (E) 633 7.6 -12.0°
Drops below altitude 10° 05:36:07 10° 176° (S) 1,680 9.3 -11.2°
Sets 05:38:13 0° 182° (S) 2,561 10.2 -10.8°
